Weather History for Poplar Bluff, MO

Change the Weather History Date:

Sunday, April 29, 2012

  Actual Average Record
Temperature  
Mean Temperature 74 °F -  
Max Temperature 86 °F 74 °F 92 °F (1952)
Min Temperature 64 °F 51 °F 34 °F (2008)
Cooling Degree Days 9    
Growing Degree Days 24 (Base 50)    
Moisture  
Dew Point 60 °F    
Average Humidity 63    
Maximum Humidity 87    
Minimum Humidity 38    
Precipitation  
Precipitation 0.00 in - - ()
Sea Level Pressure  
Sea Level Pressure 29.98 in    
Wind  
Wind Speed 4 mph (SSW)    
Max Wind Speed 16 mph    
Max Gust Speed 24 mph    
Visibility 10 miles    
Events      
Averages and records for this station are not official NWS values.
T = Trace of Precipitation, MM = Missing Value Source: NWS Daily Summary

Daily Weather History Graph

Daily Weather History Graph

Search for Another Location

Airport:

Trip Planner

Search our weather history database for the weather conditions in past years. The results will help you decide how hot, cold, wet, or windy it might be!

Date:

Astronomy

Apr. 29, 2012 Rise Set
Actual Time 6:09 AM CDT 7:48 PM CDT
Civil Twilight 5:41 AM CDT 8:16 PM CDT
Nautical Twilight 5:08 AM CDT 8:49 PM CDT
Astronomical Twilight 4:32 AM CDT 9:25 PM CDT
Moon 12:52 PM CDT (4/29) 1:48 AM CDT (4/29)
Length of Visible Light 14h 34m
Length of Day
13h 39m
First Quarter, 53% of the Moon is Illuminated
Apr 29
First Quarter
May 5
Full
May 12
Last Quarter
May 20
New
May 28
First Quarter

Hourly Weather History & Observations

Time (CDT) Temp. Heat Index Dew Point Humidity Pressure Visibility Wind Dir Wind Speed Gust Speed Precip Events Conditions
12:53 AM 70.0 °F - 62.1 °F 76% 29.98 in 10.0 mi Calm Calm - N/A   Overcast
1:53 AM 68.0 °F - 62.1 °F 81% 29.97 in 9.0 mi Calm Calm - N/A   Scattered Clouds
2:53 AM 64.9 °F - 61.0 °F 87% 29.95 in 9.0 mi Calm Calm - N/A   Clear
3:53 AM 66.0 °F - 60.1 °F 81% 29.96 in 9.0 mi Calm Calm - N/A   Clear
4:53 AM 64.0 °F - 60.1 °F 87% 29.98 in 7.0 mi Calm Calm - N/A   Clear
5:53 AM 64.0 °F - 60.1 °F 87% 30.00 in 9.0 mi South 4.6 mph - N/A   Overcast
6:53 AM 64.0 °F - 60.1 °F 87% 30.00 in 8.0 mi Calm Calm - N/A   Clear
7:53 AM 70.0 °F - 62.1 °F 76% 30.01 in 10.0 mi South 4.6 mph - N/A   Clear
8:53 AM 73.9 °F - 63.0 °F 68% 30.00 in 10.0 mi SSW 11.5 mph - N/A   Clear
9:53 AM 78.1 °F - 63.0 °F 60% 30.02 in 10.0 mi SW 11.5 mph - N/A   Clear
10:53 AM 79.0 °F - 63.0 °F 58% 30.03 in 10.0 mi SW 9.2 mph - N/A   Clear
11:53 AM 82.0 °F 83.1 °F 63.0 °F 52% 30.03 in 10.0 mi SW 11.5 mph 20.7 mph N/A   Partly Cloudy
12:53 PM 82.9 °F 83.7 °F 62.1 °F 49% 30.01 in 10.0 mi SSW 13.8 mph 24.2 mph N/A   Scattered Clouds
1:53 PM 84.0 °F 84.0 °F 60.1 °F 44% 30.00 in 10.0 mi SSW 13.8 mph 23.0 mph N/A   Partly Cloudy
2:53 PM 84.0 °F 83.5 °F 57.9 °F 41% 29.98 in 10.0 mi SSW 16.1 mph 24.2 mph N/A   Partly Cloudy
3:53 PM 84.0 °F 84.0 °F 60.1 °F 44% 29.96 in 10.0 mi SSW 11.5 mph - N/A   Clear
4:53 PM 82.9 °F 82.6 °F 57.9 °F 42% 29.95 in 10.0 mi South 11.5 mph 20.7 mph N/A   Clear
5:53 PM 84.0 °F 83.0 °F 55.9 °F 38% 29.95 in 10.0 mi SSW 11.5 mph - N/A   Partly Cloudy
6:53 PM 82.0 °F 82.0 °F 57.9 °F 44% 29.96 in 10.0 mi South 6.9 mph - N/A   Clear
7:53 PM 78.1 °F - 59.0 °F 52% 29.96 in 10.0 mi Calm Calm - N/A   Clear
9:53 PM 70.0 °F - 59.0 °F 68% 29.98 in 10.0 mi Calm Calm - N/A   Clear
10:53 PM 71.1 °F - 59.0 °F 66% 29.96 in 10.0 mi South 4.6 mph - N/A   Clear
11:53 PM 71.1 °F - 57.0 °F 61% 29.96 in 10.0 mi South 4.6 mph - N/A   Clear